Time,TemperatureF,DewpointF,PressureIn,WindDirection,WindDirectionDegrees,WindSpeedMPH,WindSpeedGustMPH,Humidity,HourlyPrecipIn,Conditions,Clouds,dailyrainin,SoftwareType,DateUTC
2013-11-06 00:02:00,50.3,27.0,30.09,NW,319,0.0,0.0,40,0.00,,CLR,0.00,VWS V14.01,2013-11-06 08:02:00,
2013-11-06 00:08:00,50.5,27.1,30.09,WNW,299,0.0,0.0,40,0.00,,CLR,0.00,VWS V14.01,2013-11-06 08:08:00,
2013-11-06 00:14:00,50.5,27.1,30.09,NNW,337,0.0,0.0,40,0.00,,CLR,0.00,VWS V14.01,2013-11-06 08:14:00,
2013-11-06 00:19:00,50.3,27.0,30.09,NNW,337,0.0,0.0,40,0.00,,CLR,0.00,VWS V14.01,2013-11-06 08:19:00,
2013-11-06 00:24:00,50.3,27.0,30.09,WNW,295,2.7,2.7,40,0.00,,CLR,0.00,VWS V14.01,2013-11-06 08:24:00,
2013-11-06 00:30:00,50.2,26.8,30.09,NW,326,0.0,0.0,40,0.00,,CLR,0.00,VWS V14.01,2013-11-06 08:30:00,
2013-11-06 00:36:00,49.8,26.5,30.09,NW,326,0.0,0.0,40,0.00,,CLR,0.00,VWS V14.01,2013-11-06 08:36:00,
2013-11-06 00:41:00,49.6,26.3,30.09,NW,319,0.0,0.0,40,0.00,,CLR,0.00,VWS V14.01,2013-11-06 08:41:00,
2013-11-06 00:47:00,49.6,26.9,30.09,NW,311,0.0,0.0,41,0.00,,CLR,0.00,VWS V14.01,2013-11-06 08:47:00,
2013-11-06 00:52:00,49.4,26.7,30.09,NNW,328,2.7,3.1,41,0.00,,CLR,0.00,VWS V14.01,2013-11-06 08:52:00,
2013-11-06 00:58:00,49.3,26.6,30.09,NNW,327,0.0,0.0,41,0.00,,CLR,0.00,VWS V14.01,2013-11-06 08:58:00,
2013-11-06 01:03:00,48.9,25.7,30.09,NNW,327,0.0,0.0,40,0.00,,CLR,0.00,VWS V14.01,2013-11-06 09:03:00,
2013-11-06 01:09:00,48.5,25.3,30.09,NNW,327,0.0,0.0,40,0.00,,CLR,0.00,VWS V14.01,2013-11-06 09:09:00,
2013-11-06 01:15:00,48.2,25.0,30.09,NNW,327,0.0,0.0,40,0.00,,CLR,0.00,VWS V14.01,2013-11-06 09:15:00,
2013-11-06 01:20:00,48.0,24.9,30.09,NNW,327,0.0,0.0,40,0.00,,CLR,0.00,VWS V14.01,2013-11-06 09:20:00,
2013-11-06 01:26:00,47.8,25.9,30.09,North,357,2.7,3.1,42,0.00,,CLR,0.00,VWS V14.01,2013-11-06 09:26:00,
2013-11-06 01:31:00,47.6,25.7,30.09,North,4,2.2,3.6,42,0.00,,CLR,0.00,VWS V14.01,2013-11-06 09:31:00,
2013-11-06 01:37:00,47.3,25.9,30.09,NNW,335,0.0,0.0,43,0.00,,,0.00,VWS V14.01,2013-11-06 09:37:00,
2013-11-06 01:42:00,47.3,26.5,30.09,WSW,253,0.0,0.0,44,0.00,,,0.00,VWS V14.01,2013-11-06 09:42:00,
2013-11-06 01:47:00,47.1,26.3,30.09,NW,323,0.0,0.0,44,0.00,,,0.00,VWS V14.01,2013-11-06 09:47:00,
2013-11-06 01:53:00,46.9,26.7,30.09,NW,322,0.0,0.0,45,0.00,,,0.00,VWS V14.01,2013-11-06 09:53:00,
2013-11-06 01:58:00,46.9,26.7,30.09,NNW,329,0.0,0.0,45,0.00,,,0.00,VWS V14.01,2013-11-06 09:58:00,
2013-11-06 02:04:00,46.6,25.8,30.09,NNW,329,0.0,0.0,44,0.00,,,0.00,VWS V14.01,2013-11-06 10:04:00,
2013-11-06 02:09:00,46.4,25.7,30.09,NNW,329,0.0,0.0,44,0.00,,,0.00,VWS V14.01,2013-11-06 10:09:00,
2013-11-06 02:15:00,46.4,26.2,30.09,NNW,329,0.0,0.0,45,0.00,,,0.00,VWS V14.01,2013-11-06 10:15:00,
2013-11-06 02:20:00,46.4,26.2,30.09,NNW,329,0.0,0.0,45,0.00,,,0.00,VWS V14.01,2013-11-06 10:20:00,
2013-11-06 02:26:00,46.2,26.0,30.09,NNW,329,0.0,0.0,45,0.00,,,0.00,VWS V14.01,2013-11-06 10:26:00,
2013-11-06 02:31:00,46.0,25.9,30.09,NNW,329,0.0,0.0,45,0.00,,,0.00,VWS V14.01,2013-11-06 10:31:00,
2013-11-06 02:36:00,46.0,25.9,30.09,NNW,329,0.0,0.0,45,0.00,,,0.00,VWS V14.01,2013-11-06 10:36:00,
2013-11-06 02:42:00,45.8,25.7,30.09,NNW,329,0.0,0.0,45,0.00,,,0.00,VWS V14.01,2013-11-06 10:42:00,
2013-11-06 02:47:00,45.8,25.7,30.09,NNW,337,2.7,2.7,45,0.00,,,0.00,VWS V14.01,2013-11-06 10:47:00,
2013-11-06 02:53:00,45.8,25.7,30.09,NNW,336,0.0,0.0,45,0.00,,,0.00,VWS V14.01,2013-11-06 10:53:00,
2013-11-06 02:58:00,45.8,25.7,30.09,NNW,336,0.0,0.0,45,0.00,,,0.00,VWS V14.01,2013-11-06 10:58:00,
2013-11-06 03:05:00,45.8,25.7,30.09,NNW,336,0.0,0.0,45,0.00,,,0.00,VWS V14.01,2013-11-06 11:05:00,
2013-11-06 03:10:00,45.7,25.6,30.09,NNW,336,0.0,0.0,45,0.00,,,0.00,VWS V14.01,2013-11-06 11:10:00,
2013-11-06 03:15:00,45.5,25.4,30.09,NNW,336,0.0,0.0,45,0.00,,,0.00,VWS V14.01,2013-11-06 11:15:00,
2013-11-06 03:21:00,45.3,25.2,30.09,NNW,336,0.0,0.0,45,0.00,,,0.00,VWS V14.01,2013-11-06 11:21:00,
2013-11-06 03:27:00,44.9,24.4,30.09,NNW,336,0.0,0.0,44,0.00,,,0.00,VWS V14.01,2013-11-06 11:27:00,
2013-11-06 03:32:00,44.8,24.2,30.09,SW,226,0.0,0.0,44,0.00,,,0.00,VWS V14.01,2013-11-06 11:32:00,
2013-11-06 03:38:00,44.9,24.9,30.09,West,261,0.0,0.0,45,0.00,,,0.00,VWS V14.01,2013-11-06 11:38:00,
2013-11-06 03:43:00,45.1,24.5,30.09,West,276,0.0,0.0,44,0.00,,,0.00,VWS V14.01,2013-11-06 11:43:00,
2013-11-06 03:48:00,44.9,24.4,30.09,NW,312,0.0,0.0,44,0.00,,,0.00,VWS V14.01,2013-11-06 11:48:00,
2013-11-06 03:53:00,44.8,24.2,30.09,NW,312,0.0,0.0,44,0.00,,,0.00,VWS V14.01,2013-11-06 11:53:00,
2013-11-06 03:59:00,44.6,24.0,30.09,NW,312,0.0,0.0,44,0.00,,,0.00,VWS V14.01,2013-11-06 11:59:00,
2013-11-06 04:04:00,44.6,24.0,30.09,NW,312,0.0,0.0,44,0.00,,,0.00,VWS V14.01,2013-11-06 12:04:00,
2013-11-06 04:10:00,44.2,23.7,30.09,North,7,0.0,0.0,44,0.00,,,0.00,VWS V14.01,2013-11-06 12:10:00,
2013-11-06 04:15:00,44.0,23.5,30.09,North,7,0.0,0.0,44,0.00,,,0.00,VWS V14.01,2013-11-06 12:15:00,
2013-11-06 04:21:00,43.9,23.9,30.09,West,266,0.0,0.0,45,0.00,,,0.00,VWS V14.01,2013-11-06 12:21:00,
2013-11-06 04:26:00,44.0,24.1,30.09,West,266,0.0,0.0,45,0.00,,,0.00,VWS V14.01,2013-11-06 12:26:00,
2013-11-06 04:31:00,44.0,24.1,30.09,NW,325,0.0,0.0,45,0.00,,,0.00,VWS V14.01,2013-11-06 12:31:00,
2013-11-06 04:37:00,43.9,23.9,30.09,NW,326,0.0,0.0,45,0.00,,,0.00,VWS V14.01,2013-11-06 12:37:00,
2013-11-06 04:42:00,43.9,23.9,30.09,NW,307,0.0,0.0,45,0.00,,,0.00,VWS V14.01,2013-11-06 12:42:00,
2013-11-06 04:48:00,43.9,23.9,30.09,NW,319,0.0,0.0,45,0.00,,,0.00,VWS V14.01,2013-11-06 12:48:00,
2013-11-06 04:53:00,43.5,23.0,30.09,NW,319,0.0,0.0,44,0.00,,,0.00,VWS V14.01,2013-11-06 12:53:00,
2013-11-06 04:58:00,43.3,22.9,30.09,NW,320,0.0,0.0,44,0.00,,,0.00,VWS V14.01,2013-11-06 12:58:00,
2013-11-06 05:03:00,43.1,22.7,30.09,NW,319,0.0,0.0,44,0.00,,,0.00,VWS V14.01,2013-11-06 13:03:00,
2013-11-06 05:08:00,43.3,22.9,30.09,NW,314,0.0,0.0,44,0.00,,,0.00,VWS V14.01,2013-11-06 13:08:00,
2013-11-06 05:14:00,43.5,23.0,30.09,NNW,333,2.7,3.1,44,0.00,,,0.00,VWS V14.01,2013-11-06 13:14:00,
2013-11-06 05:19:00,43.5,22.5,30.09,NNW,334,0.0,2.2,43,0.00,,,0.00,VWS V14.01,2013-11-06 13:19:00,
2013-11-06 05:24:00,43.5,22.5,30.09,North,353,4.0,4.0,43,0.00,,,0.00,VWS V14.01,2013-11-06 13:24:00,
2013-11-06 05:30:00,43.7,22.7,30.09,North,0,2.7,4.0,43,0.00,,,0.00,VWS V14.01,2013-11-06 13:30:00,
2013-11-06 05:35:00,43.9,22.3,30.09,North,353,0.0,2.2,42,0.00,,CLR,0.00,VWS V14.01,2013-11-06 13:35:00,
2013-11-06 05:41:00,43.7,22.1,30.09,North,3,2.7,3.1,42,0.00,,CLR,0.00,VWS V14.01,2013-11-06 13:41:00,
2013-11-06 05:46:00,43.9,21.7,30.09,North,350,2.7,3.1,41,0.00,,CLR,0.00,VWS V14.01,2013-11-06 13:46:00,
2013-11-06 05:51:00,44.2,20.9,30.09,NNW,338,3.6,3.6,39,0.00,,CLR,0.00,VWS V14.01,2013-11-06 13:51:00,
2013-11-06 05:56:00,44.6,21.2,30.09,North,353,2.7,3.1,39,0.00,,CLR,0.00,VWS V14.01,2013-11-06 13:56:00,
2013-11-06 06:01:00,44.4,19.8,30.12,NNW,330,2.7,2.7,37,0.00,,CLR,0.00,VWS V14.01,2013-11-06 14:01:00,
2013-11-06 06:06:00,44.4,17.8,30.12,NNW,328,0.0,4.0,34,0.00,,CLR,0.00,VWS V14.01,2013-11-06 14:06:00,
2013-11-06 06:12:00,44.6,17.3,30.12,NNW,333,3.6,3.6,33,0.00,,CLR,0.00,VWS V14.01,2013-11-06 14:12:00,
2013-11-06 06:17:00,44.8,16.0,30.12,NNW,327,3.1,5.4,31,0.00,,CLR,0.00,VWS V14.01,2013-11-06 14:17:00,
2013-11-06 06:23:00,45.1,15.6,30.12,NW,315,3.6,3.6,30,0.00,,CLR,0.00,VWS V14.01,2013-11-06 14:23:00,
2013-11-06 06:28:00,45.3,14.9,30.12,NW,321,4.0,5.4,29,0.00,,CLR,0.00,VWS V14.01,2013-11-06 14:28:00,
2013-11-06 06:34:00,45.3,14.9,30.12,WNW,302,0.0,0.0,29,0.00,,CLR,0.00,VWS V14.01,2013-11-06 14:34:00,
2013-11-06 06:39:00,45.3,14.9,30.12,NW,309,3.6,3.6,29,0.00,,CLR,0.00,VWS V14.01,2013-11-06 14:39:00,
2013-11-06 06:45:00,45.7,15.2,30.12,NW,315,4.0,4.0,29,0.00,,CLR,0.00,VWS V14.01,2013-11-06 14:45:00,
2013-11-06 06:51:00,46.6,15.2,30.12,NW,315,5.4,5.4,28,0.00,,CLR,0.00,VWS V14.01,2013-11-06 14:51:00,
2013-11-06 06:57:00,47.5,15.2,30.12,NW,323,3.1,4.0,27,0.00,,CLR,0.00,VWS V14.01,2013-11-06 14:57:00,
2013-11-06 07:02:00,48.4,15.1,30.12,NW,319,3.1,4.0,26,0.00,,CLR,0.00,VWS V14.01,2013-11-06 15:02:00,
2013-11-06 07:08:00,49.1,15.7,30.12,NNW,336,3.6,4.0,26,0.00,,CLR,0.00,VWS V14.01,2013-11-06 15:08:00,
2013-11-06 07:13:00,49.8,13.5,30.12,North,350,4.0,4.0,23,0.00,,CLR,0.00,VWS V14.01,2013-11-06 15:13:00,
2013-11-06 07:18:00,50.7,12.2,30.12,NNW,346,4.0,5.4,21,0.00,,CLR,0.00,VWS V14.01,2013-11-06 15:18:00,
2013-11-06 07:23:00,51.6,9.5,30.12,North,357,4.0,4.9,18,0.00,,CLR,0.00,VWS V14.01,2013-11-06 15:23:00,
2013-11-06 07:29:00,52.5,10.2,30.15,North,353,5.8,5.8,18,0.00,,CLR,0.00,VWS V14.01,2013-11-06 15:29:00,
2013-11-06 07:34:00,53.4,6.9,30.15,NNW,339,5.4,6.3,15,0.00,,CLR,0.00,VWS V14.01,2013-11-06 15:34:00,
2013-11-06 07:40:00,54.3,7.7,30.15,North,353,5.4,7.6,15,0.00,,CLR,0.00,VWS V14.01,2013-11-06 15:40:00,
2013-11-06 07:45:00,55.0,8.2,30.15,NNW,337,5.4,8.7,15,0.00,,CLR,0.00,VWS V14.01,2013-11-06 15:45:00,
2013-11-06 07:51:00,55.9,7.4,30.15,NNW,343,3.6,6.3,14,0.00,,CLR,0.00,VWS V14.01,2013-11-06 15:51:00,
2013-11-06 07:56:00,56.8,8.1,30.15,NW,326,6.3,7.6,14,0.00,,CLR,0.00,VWS V14.01,2013-11-06 15:56:00,
2013-11-06 08:01:00,57.5,8.7,30.15,NNW,335,5.4,5.4,14,0.00,,CLR,0.00,VWS V14.01,2013-11-06 16:01:00,
2013-11-06 08:07:00,58.3,9.3,30.15,NNW,340,4.9,4.9,14,0.00,,CLR,0.00,VWS V14.01,2013-11-06 16:07:00,
2013-11-06 08:12:00,59.3,10.2,30.15,North,349,6.3,6.3,14,0.00,,CLR,0.00,VWS V14.01,2013-11-06 16:12:00,
2013-11-06 08:18:00,60.2,10.9,30.15,NNW,339,4.0,5.4,14,0.00,,CLR,0.00,VWS V14.01,2013-11-06 16:18:00,
2013-11-06 08:23:00,61.0,6.1,30.15,NNW,346,4.0,6.3,11,0.00,,CLR,0.00,VWS V14.01,2013-11-06 16:23:00,
2013-11-06 08:29:00,61.7,6.7,30.15,NNW,337,5.4,8.3,11,0.00,,CLR,0.00,VWS V14.01,2013-11-06 16:29:00,
2013-11-06 08:34:00,62.4,5.1,30.15,NNW,339,5.4,6.3,10,0.00,,CLR,0.00,VWS V14.01,2013-11-06 16:34:00,
2013-11-06 08:40:00,63.3,5.8,30.15,North,353,6.7,7.2,10,0.00,,CLR,0.00,VWS V14.01,2013-11-06 16:40:00,
2013-11-06 08:45:00,64.0,6.4,30.15,NNW,336,2.7,5.4,10,0.00,,CLR,0.00,VWS V14.01,2013-11-06 16:45:00,
2013-11-06 08:50:00,64.9,7.1,30.15,NNW,343,4.0,6.3,10,0.00,,CLR,0.00,VWS V14.01,2013-11-06 16:50:00,
2013-11-06 08:56:00,66.0,7.9,30.15,North,0,6.3,6.3,10,0.00,,CLR,0.00,VWS V14.01,2013-11-06 16:56:00,
2013-11-06 09:01:00,66.9,8.6,30.15,NNW,340,4.0,5.4,10,0.00,,CLR,0.00,VWS V14.01,2013-11-06 17:01:00,
2013-11-06 09:07:00,67.6,9.1,30.15,NNE,31,7.2,7.2,10,0.00,,CLR,0.00,VWS V14.01,2013-11-06 17:07:00,
2013-11-06 09:12:00,68.7,7.6,30.15,North,353,5.4,5.8,9,0.00,,CLR,0.00,VWS V14.01,2013-11-06 17:12:00,
2013-11-06 09:17:00,69.4,8.2,30.15,North,357,3.6,5.4,9,0.00,,CLR,0.00,VWS V14.01,2013-11-06 17:17:00,
2013-11-06 09:23:00,70.3,8.9,30.15,NNW,345,4.0,5.4,9,0.00,,CLR,0.00,VWS V14.01,2013-11-06 17:23:00,
2013-11-06 09:29:00,71.0,9.4,30.15,NNW,342,4.0,4.9,9,0.00,,CLR,0.00,VWS V14.01,2013-11-06 17:29:00,
2013-11-06 09:35:00,71.9,7.5,30.15,WNW,303,2.7,3.6,8,0.00,,CLR,0.00,VWS V14.01,2013-11-06 17:35:00,
2013-11-06 09:40:00,73.0,8.3,30.15,West,270,0.0,0.0,8,0.00,,CLR,0.00,VWS V14.01,2013-11-06 17:40:00,
2013-11-06 09:46:00,74.3,9.2,30.15,North,357,0.0,0.0,8,0.00,,CLR,0.00,VWS V14.01,2013-11-06 17:46:00,
2013-11-06 09:52:00,75.2,9.9,30.15,East,90,0.0,2.7,8,0.00,,CLR,0.00,VWS V14.01,2013-11-06 17:52:00,
2013-11-06 09:58:00,76.1,10.6,30.15,NNE,17,2.2,3.1,8,0.00,,CLR,0.00,VWS V14.01,2013-11-06 17:58:00,
2013-11-06 10:04:00,77.2,8.4,30.15,NNE,19,2.7,2.7,7,0.00,,CLR,0.00,VWS V14.01,2013-11-06 18:04:00,
2013-11-06 10:10:00,78.2,9.2,30.15,NNE,31,0.0,0.0,7,0.00,,CLR,0.00,VWS V14.01,2013-11-06 18:10:00,
2013-11-06 10:15:00,79.0,15.4,30.15,NE,46,0.0,0.0,9,0.00,,CLR,0.00,VWS V14.01,2013-11-06 18:15:00,
2013-11-06 10:21:00,79.1,15.5,30.15,SSW,204,0.0,2.7,9,0.00,,CLR,0.00,VWS V14.01,2013-11-06 18:21:00,
2013-11-06 10:27:00,80.0,16.2,30.15,North,349,2.7,3.1,9,0.00,,CLR,0.00,VWS V14.01,2013-11-06 18:27:00,
2013-11-06 10:32:00,80.4,16.5,30.15,North,357,0.0,3.6,9,0.00,,CLR,0.00,VWS V14.01,2013-11-06 18:32:00,
2013-11-06 10:37:00,79.0,15.4,30.15,WSW,249,4.5,4.9,9,0.00,,CLR,0.00,VWS V14.01,2013-11-06 18:37:00,
2013-11-06 10:43:00,79.3,10.0,30.15,NW,324,0.0,0.0,7,0.00,,CLR,0.00,VWS V14.01,2013-11-06 18:43:00,
2013-11-06 10:48:00,79.5,15.8,30.12,SE,136,5.4,5.4,9,0.00,,CLR,0.00,VWS V14.01,2013-11-06 18:48:00,
2013-11-06 10:53:00,79.3,10.0,30.12,SW,215,3.6,4.9,7,0.00,,CLR,0.00,VWS V14.01,2013-11-06 18:53:00,
2013-11-06 10:58:00,79.9,16.0,30.12,WSW,237,3.6,4.0,9,0.00,,CLR,0.00,VWS V14.01,2013-11-06 18:58:00,
2013-11-06 11:04:00,79.7,10.2,30.12,SSW,202,2.7,2.7,7,0.00,,CLR,0.00,VWS V14.01,2013-11-06 19:04:00,
2013-11-06 11:10:00,81.8,17.5,30.12,ESE,119,0.0,0.0,9,0.00,,CLR,0.00,VWS V14.01,2013-11-06 19:10:00,
2013-11-06 11:16:00,82.9,15.6,30.12,WSW,243,0.0,0.0,8,0.00,,CLR,0.00,VWS V14.01,2013-11-06 19:16:00,
2013-11-06 11:21:00,84.0,16.4,30.12,WSW,243,0.0,2.2,8,0.00,,CLR,0.00,VWS V14.01,2013-11-06 19:21:00,
2013-11-06 11:27:00,83.8,16.3,30.12,West,264,0.0,0.0,8,0.00,,CLR,0.00,VWS V14.01,2013-11-06 19:27:00,
2013-11-06 11:32:00,83.8,16.3,30.12,NNW,329,2.7,4.0,8,0.00,,CLR,0.00,VWS V14.01,2013-11-06 19:32:00,
2013-11-06 11:37:00,84.0,16.4,30.12,North,9,3.6,3.6,8,0.00,,CLR,0.00,VWS V14.01,2013-11-06 19:37:00,
2013-11-06 11:42:00,85.3,17.4,30.12,ENE,74,0.0,0.0,8,0.00,,CLR,0.00,VWS V14.01,2013-11-06 19:42:00,
2013-11-06 11:48:00,84.9,17.1,30.09,SSE,152,3.1,3.1,8,0.00,,CLR,0.00,VWS V14.01,2013-11-06 19:48:00,
2013-11-06 11:53:00,85.8,17.8,30.09,SE,143,3.1,3.1,8,0.00,,CLR,0.00,VWS V14.01,2013-11-06 19:53:00,
2013-11-06 11:59:00,85.8,17.8,30.09,South,191,0.0,2.7,8,0.00,,CLR,0.00,VWS V14.01,2013-11-06 19:59:00,
2013-11-06 12:04:00,86.5,18.3,30.09,North,357,2.2,4.0,8,0.00,,CLR,0.00,VWS V14.01,2013-11-06 20:04:00,
2013-11-06 12:09:00,86.5,18.3,30.09,North,350,5.8,5.8,8,0.00,,CLR,0.00,VWS V14.01,2013-11-06 20:09:00,
2013-11-06 12:14:00,86.0,17.9,30.09,WSW,247,0.0,3.1,8,0.00,,CLR,0.00,VWS V14.01,2013-11-06 20:14:00,
2013-11-06 12:20:00,85.6,17.6,30.09,SE,126,0.0,0.0,8,0.00,,CLR,0.00,VWS V14.01,2013-11-06 20:20:00,
2013-11-06 12:26:00,86.2,18.0,30.09,NNW,328,7.6,7.6,8,0.00,,CLR,0.00,VWS V14.01,2013-11-06 20:26:00,
2013-11-06 12:31:00,85.8,17.8,30.09,North,0,0.0,2.7,8,0.00,,CLR,0.00,VWS V14.01,2013-11-06 20:31:00,
2013-11-06 12:37:00,86.7,18.4,30.09,NNE,27,4.0,4.0,8,0.00,,CLR,0.00,VWS V14.01,2013-11-06 20:37:00,
2013-11-06 12:42:00,88.1,16.4,30.09,North,350,0.0,0.0,7,0.00,,CLR,0.00,VWS V14.01,2013-11-06 20:42:00,
2013-11-06 12:47:00,89.2,17.2,30.06,WNW,290,0.0,2.2,7,0.00,,CLR,0.00,VWS V14.01,2013-11-06 20:47:00,
2013-11-06 12:52:00,83.1,15.8,30.06,WSW,242,5.8,8.7,8,0.00,,CLR,0.00,VWS V14.01,2013-11-06 20:52:00,
2013-11-06 12:58:00,86.0,17.9,30.06,South,185,2.2,2.2,8,0.00,,CLR,0.00,VWS V14.01,2013-11-06 20:58:00,
2013-11-06 13:03:00,86.7,18.4,30.06,West,269,4.0,4.9,8,0.00,,CLR,0.00,VWS V14.01,2013-11-06 21:03:00,
2013-11-06 13:08:00,86.3,18.2,30.06,SSW,209,4.0,4.0,8,0.00,,CLR,0.00,VWS V14.01,2013-11-06 21:08:00,
2013-11-06 13:13:00,85.8,17.8,30.06,SSW,192,2.7,4.0,8,0.00,,CLR,0.00,VWS V14.01,2013-11-06 21:13:00,
2013-11-06 13:19:00,85.4,17.5,30.06,SSW,207,3.1,5.4,8,0.00,,CLR,0.00,VWS V14.01,2013-11-06 21:19:00,
2013-11-06 13:24:00,85.1,17.2,30.06,South,191,3.1,5.8,8,0.00,,CLR,0.00,VWS V14.01,2013-11-06 21:24:00,
2013-11-06 13:30:00,84.9,17.1,30.06,SSE,151,0.0,2.7,8,0.00,,CLR,0.00,VWS V14.01,2013-11-06 21:30:00,
2013-11-06 13:36:00,85.4,17.5,30.06,SW,230,4.0,4.0,8,0.00,,CLR,0.00,VWS V14.01,2013-11-06 21:36:00,
2013-11-06 13:41:00,85.6,17.6,30.06,SW,232,3.1,4.0,8,0.00,,CLR,0.00,VWS V14.01,2013-11-06 21:41:00,
2013-11-06 13:47:00,84.5,16.8,30.06,WSW,247,4.5,4.5,8,0.00,,CLR,0.00,VWS V14.01,2013-11-06 21:47:00,
2013-11-06 13:52:00,86.3,18.2,30.06,South,191,3.6,3.6,8,0.00,,CLR,0.00,VWS V14.01,2013-11-06 21:52:00,
2013-11-06 13:58:00,86.7,18.4,30.06,South,187,3.6,4.9,8,0.00,,CLR,0.00,VWS V14.01,2013-11-06 21:58:00,
2013-11-06 14:03:00,86.5,18.3,30.06,South,191,3.1,5.4,8,0.00,,CLR,0.00,VWS V14.01,2013-11-06 22:03:00,
2013-11-06 14:09:00,86.2,18.0,30.06,SSE,167,4.0,4.9,8,0.00,,CLR,0.00,VWS V14.01,2013-11-06 22:09:00,
2013-11-06 14:14:00,86.3,18.2,30.03,SSW,205,2.7,5.4,8,0.00,,CLR,0.00,VWS V14.01,2013-11-06 22:14:00,
2013-11-06 14:19:00,85.8,17.8,30.03,SSW,212,0.0,3.6,8,0.00,,CLR,0.00,VWS V14.01,2013-11-06 22:19:00,
2013-11-06 14:25:00,86.0,17.9,30.03,South,186,3.1,4.0,8,0.00,,CLR,0.00,VWS V14.01,2013-11-06 22:25:00,
2013-11-06 14:30:00,85.8,17.8,30.03,SW,218,2.7,4.5,8,0.00,,CLR,0.00,VWS V14.01,2013-11-06 22:30:00,
2013-11-06 14:36:00,84.9,17.1,30.03,SE,137,6.3,6.3,8,0.00,,CLR,0.00,VWS V14.01,2013-11-06 22:36:00,
2013-11-06 14:41:00,84.2,16.6,30.03,SSE,158,2.7,5.4,8,0.00,,CLR,0.00,VWS V14.01,2013-11-06 22:41:00,
2013-11-06 14:47:00,83.3,15.9,30.03,SE,146,2.7,3.6,8,0.00,,CLR,0.00,VWS V14.01,2013-11-06 22:47:00,
2013-11-06 14:52:00,82.7,15.5,30.03,SW,230,3.6,4.0,8,0.00,,CLR,0.00,VWS V14.01,2013-11-06 22:52:00,
2013-11-06 14:58:00,81.3,17.1,30.03,West,265,6.3,6.3,9,0.00,,CLR,0.00,VWS V14.01,2013-11-06 22:58:00,
2013-11-06 15:03:00,80.2,16.3,30.03,West,279,3.6,8.7,9,0.00,,CLR,0.00,VWS V14.01,2013-11-06 23:03:00,
2013-11-06 15:08:00,81.1,17.0,30.03,WNW,296,6.3,6.3,9,0.00,,CLR,0.00,VWS V14.01,2013-11-06 23:08:00,
2013-11-06 15:14:00,80.2,16.3,30.03,West,260,3.6,7.6,9,0.00,,CLR,0.00,VWS V14.01,2013-11-06 23:14:00,
2013-11-06 15:19:00,79.9,16.0,30.03,West,272,5.4,6.3,9,0.00,,CLR,0.00,VWS V14.01,2013-11-06 23:19:00,
2013-11-06 15:24:00,80.6,16.6,30.03,NNW,330,4.9,6.3,9,0.00,,CLR,0.00,VWS V14.01,2013-11-06 23:24:00,
2013-11-06 15:29:00,79.7,15.9,30.03,West,276,6.7,7.6,9,0.00,,CLR,0.00,VWS V14.01,2013-11-06 23:29:00,
2013-11-06 15:35:00,77.9,8.9,30.03,West,271,8.3,8.3,7,0.00,,CLR,0.00,VWS V14.01,2013-11-06 23:35:00,
2013-11-06 15:40:00,77.3,8.5,30.03,West,278,7.2,7.2,7,0.00,,CLR,0.00,VWS V14.01,2013-11-06 23:40:00,
2013-11-06 15:46:00,76.4,10.8,30.03,WSW,245,5.4,8.1,8,0.00,,CLR,0.00,VWS V14.01,2013-11-06 23:46:00,
2013-11-06 15:51:00,75.9,10.4,30.03,West,275,8.3,8.3,8,0.00,,CLR,0.00,VWS V14.01,2013-11-06 23:51:00,
2013-11-06 15:57:00,75.5,10.1,30.03,NW,304,3.1,5.8,8,0.00,,CLR,0.00,VWS V14.01,2013-11-06 23:57:00,
2013-11-06 16:02:00,75.9,10.4,30.03,WNW,290,3.6,8.1,8,0.00,,CLR,0.00,VWS V14.01,2013-11-07 00:02:00,
2013-11-06 16:08:00,74.6,9.5,30.03,NW,311,3.1,5.8,8,0.00,,CLR,0.00,VWS V14.01,2013-11-07 00:08:00,
2013-11-06 16:14:00,74.6,9.5,30.03,WNW,285,7.6,7.6,8,0.00,,CLR,0.00,VWS V14.01,2013-11-07 00:14:00,
2013-11-06 16:19:00,73.9,8.9,30.03,West,275,3.6,5.4,8,0.00,,CLR,0.00,VWS V14.01,2013-11-07 00:19:00,
2013-11-06 16:25:00,73.4,8.5,30.03,WNW,293,4.9,4.9,8,0.00,,CLR,0.00,VWS V14.01,2013-11-07 00:25:00,
2013-11-06 16:31:00,73.2,8.4,30.03,NNW,337,5.4,5.4,8,0.00,,CLR,0.00,VWS V14.01,2013-11-07 00:31:00,
2013-11-06 16:36:00,72.3,7.7,30.03,WNW,294,5.4,6.3,8,0.00,,CLR,0.00,VWS V14.01,2013-11-07 00:36:00,
2013-11-06 16:42:00,71.9,7.5,30.03,WNW,298,5.4,5.4,8,0.00,,CLR,0.00,VWS V14.01,2013-11-07 00:42:00,
2013-11-06 16:47:00,70.9,9.3,30.06,NW,305,6.3,8.1,9,0.00,,CLR,0.00,VWS V14.01,2013-11-07 00:47:00,
2013-11-06 16:53:00,70.3,8.9,30.06,NW,320,5.8,5.8,9,0.00,,CLR,0.00,VWS V14.01,2013-11-07 00:53:00,
2013-11-06 16:58:00,70.0,8.6,30.06,NW,310,3.1,6.3,9,0.00,,CLR,0.00,VWS V14.01,2013-11-07 00:58:00,
2013-11-06 17:04:00,69.2,8.0,30.06,NW,313,5.8,7.6,9,0.00,,CLR,0.00,VWS V14.01,2013-11-07 01:04:00,
2013-11-06 17:10:00,68.5,7.5,30.06,NW,312,8.3,8.3,9,0.00,,CLR,0.00,VWS V14.01,2013-11-07 01:10:00,
2013-11-06 17:15:00,68.2,7.2,30.06,WNW,293,4.0,7.6,9,0.00,,CLR,0.00,VWS V14.01,2013-11-07 01:15:00,
2013-11-06 17:21:00,68.0,7.1,30.06,WNW,282,5.8,5.8,9,0.00,,CLR,0.00,VWS V14.01,2013-11-07 01:21:00,
2013-11-06 17:26:00,67.6,9.1,30.06,WNW,295,3.1,4.9,10,0.00,,CLR,0.00,VWS V14.01,2013-11-07 01:26:00,
2013-11-06 17:32:00,67.3,8.9,30.06,NW,305,2.7,4.9,10,0.00,,CLR,0.00,VWS V14.01,2013-11-07 01:32:00,
2013-11-06 17:38:00,66.9,8.6,30.06,WNW,298,3.6,6.3,10,0.00,,CLR,0.00,VWS V14.01,2013-11-07 01:38:00,
2013-11-06 17:43:00,66.7,8.4,30.06,NW,321,4.9,5.4,10,0.00,,CLR,0.00,VWS V14.01,2013-11-07 01:43:00,
2013-11-06 17:49:00,66.4,8.2,30.06,NW,311,4.0,4.0,10,0.00,,CLR,0.00,VWS V14.01,2013-11-07 01:49:00,
2013-11-06 17:54:00,66.2,8.0,30.06,WNW,297,3.1,4.0,10,0.00,,CLR,0.00,VWS V14.01,2013-11-07 01:54:00,
2013-11-06 17:59:00,65.8,7.8,30.06,WNW,294,3.1,6.3,10,0.00,,CLR,0.00,VWS V14.01,2013-11-07 01:59:00,
2013-11-06 18:05:00,65.5,11.5,30.06,WNW,299,0.0,4.0,12,0.00,,CLR,0.00,VWS V14.01,2013-11-07 02:05:00,
2013-11-06 18:10:00,65.3,11.4,30.06,NNW,348,2.7,3.1,12,0.00,,CLR,0.00,VWS V14.01,2013-11-07 02:10:00,
2013-11-06 18:16:00,64.9,11.1,30.06,NNW,336,3.1,3.6,12,0.00,,CLR,0.00,VWS V14.01,2013-11-07 02:16:00,
2013-11-06 18:21:00,64.7,11.0,30.06,North,0,3.1,3.1,12,0.00,,CLR,0.00,VWS V14.01,2013-11-07 02:21:00,
2013-11-06 18:27:00,64.4,10.7,30.06,NNW,331,2.2,4.0,12,0.00,,CLR,0.00,VWS V14.01,2013-11-07 02:27:00,
2013-11-06 18:33:00,64.0,12.2,30.06,North,0,0.0,0.0,13,0.00,,CLR,0.00,VWS V14.01,2013-11-07 02:33:00,
2013-11-06 18:38:00,63.7,11.9,30.06,WNW,284,0.0,0.0,13,0.00,,CLR,0.00,VWS V14.01,2013-11-07 02:38:00,
2013-11-06 18:44:00,63.5,11.8,30.06,North,353,2.7,3.6,13,0.00,,CLR,0.00,VWS V14.01,2013-11-07 02:44:00,
2013-11-06 18:49:00,63.1,11.5,30.06,North,353,0.0,0.0,13,0.00,,CLR,0.00,VWS V14.01,2013-11-07 02:49:00,
2013-11-06 18:55:00,62.8,11.2,30.06,North,353,0.0,0.0,13,0.00,,CLR,0.00,VWS V14.01,2013-11-07 02:55:00,
2013-11-06 19:00:00,62.4,10.9,30.06,North,353,0.0,0.0,13,0.00,,CLR,0.00,VWS V14.01,2013-11-07 03:00:00,
2013-11-06 19:06:00,61.9,10.5,30.06,North,353,0.0,0.0,13,0.00,,CLR,0.00,VWS V14.01,2013-11-07 03:06:00,
2013-11-06 19:12:00,61.5,10.2,30.06,NNW,330,0.0,0.0,13,0.00,,CLR,0.00,VWS V14.01,2013-11-07 03:12:00,
2013-11-06 19:17:00,61.3,14.8,30.06,NNW,330,0.0,0.0,16,0.00,,CLR,0.00,VWS V14.01,2013-11-07 03:17:00,
2013-11-06 19:23:00,60.8,9.6,30.06,NNW,330,0.0,0.0,13,0.00,,CLR,0.00,VWS V14.01,2013-11-07 03:23:00,
2013-11-06 19:29:00,60.2,13.9,30.06,NNW,330,0.0,0.0,16,0.00,,CLR,0.00,VWS V14.01,2013-11-07 03:29:00,
2013-11-06 19:34:00,59.9,13.6,30.06,North,353,0.0,0.0,16,0.00,,CLR,0.00,VWS V14.01,2013-11-07 03:34:00,
2013-11-06 19:40:00,59.5,13.3,30.06,North,353,2.2,3.1,16,0.00,,CLR,0.00,VWS V14.01,2013-11-07 03:40:00,
2013-11-06 19:45:00,59.3,13.2,30.09,North,3,0.0,2.7,16,0.00,,CLR,0.00,VWS V14.01,2013-11-07 03:45:00,
2013-11-06 19:50:00,59.2,13.0,30.09,North,3,0.0,0.0,16,0.00,,CLR,0.00,VWS V14.01,2013-11-07 03:50:00,
2013-11-06 19:55:00,59.0,12.9,30.09,North,353,0.0,0.0,16,0.00,,CLR,0.00,VWS V14.01,2013-11-07 03:55:00,
2013-11-06 20:01:00,59.0,16.8,30.09,North,353,0.0,0.0,19,0.00,,CLR,0.00,VWS V14.01,2013-11-07 04:01:00,
2013-11-06 20:06:00,58.6,16.5,30.09,NNW,327,0.0,0.0,19,0.00,,CLR,0.00,VWS V14.01,2013-11-07 04:06:00,
2013-11-06 20:12:00,58.4,16.4,30.09,NW,326,3.1,3.6,19,0.00,,CLR,0.00,VWS V14.01,2013-11-07 04:12:00,
2013-11-06 20:17:00,58.4,19.8,30.09,North,353,2.7,3.1,22,0.00,,CLR,0.00,VWS V14.01,2013-11-07 04:17:00,
2013-11-06 20:23:00,58.3,21.6,30.09,NW,321,2.7,3.1,24,0.00,,CLR,0.00,VWS V14.01,2013-11-07 04:23:00,
2013-11-06 20:28:00,58.3,21.6,30.09,NW,321,3.6,4.9,24,0.00,,CLR,0.00,VWS V14.01,2013-11-07 04:28:00,
2013-11-06 20:33:00,58.3,22.6,30.09,NW,324,0.0,2.7,25,0.00,,CLR,0.00,VWS V14.01,2013-11-07 04:33:00,
2013-11-06 20:39:00,58.1,22.5,30.09,NW,324,0.0,0.0,25,0.00,,CLR,0.00,VWS V14.01,2013-11-07 04:39:00,
2013-11-06 20:44:00,58.1,23.4,30.06,WNW,288,0.0,2.7,26,0.00,,CLR,0.00,VWS V14.01,2013-11-07 04:44:00,
2013-11-06 20:50:00,57.9,23.2,30.06,North,0,3.6,4.0,26,0.00,,CLR,0.00,VWS V14.01,2013-11-07 04:50:00,
2013-11-06 20:55:00,57.7,23.1,30.06,North,5,2.7,3.1,26,0.00,,CLR,0.00,VWS V14.01,2013-11-07 04:55:00,
2013-11-06 21:01:00,57.4,22.8,30.09,North,357,0.0,0.0,26,0.00,,CLR,0.00,VWS V14.01,2013-11-07 05:01:00,
2013-11-06 21:02:00,57.4,22.8,30.09,North,357,0.0,0.0,26,0.00,,CLR,0.00,VWS V14.01,2013-11-07 05:02:00,
2013-11-06 21:03:00,57.4,23.7,30.09,North,357,0.0,0.0,27,0.00,,CLR,0.00,VWS V14.01,2013-11-07 05:03:00,
2013-11-06 21:06:00,57.2,23.5,30.09,North,357,0.0,0.0,27,0.00,,CLR,0.00,VWS V14.01,2013-11-07 05:06:00,
2013-11-06 21:09:00,56.8,24.1,30.09,NNW,335,0.0,0.0,28,0.00,,CLR,0.00,VWS V14.01,2013-11-07 05:09:00,
2013-11-06 21:11:00,56.8,24.9,30.09,NNE,28,2.7,4.0,29,0.00,,CLR,0.00,VWS V14.01,2013-11-07 05:11:00,
2013-11-06 21:16:00,56.6,24.8,30.06,North,4,3.1,3.1,29,0.00,,CLR,0.00,VWS V14.01,2013-11-07 05:16:00,
2013-11-06 21:22:00,56.5,24.6,30.06,NNW,342,0.0,0.0,29,0.00,,CLR,0.00,VWS V14.01,2013-11-07 05:22:00,
2013-11-06 21:28:00,56.3,24.5,30.06,NNW,342,0.0,0.0,29,0.00,,CLR,0.00,VWS V14.01,2013-11-07 05:28:00,
2013-11-06 21:33:00,56.1,25.1,30.06,NNW,342,0.0,0.0,30,0.00,,CLR,0.00,VWS V14.01,2013-11-07 05:33:00,
2013-11-06 21:39:00,55.9,25.7,30.06,North,353,2.2,2.2,31,0.00,,CLR,0.00,VWS V14.01,2013-11-07 05:39:00,
2013-11-06 21:44:00,55.7,24.8,30.06,North,353,0.0,3.1,30,0.00,,CLR,0.00,VWS V14.01,2013-11-07 05:44:00,
2013-11-06 21:50:00,55.9,23.3,30.06,North,0,0.0,0.0,28,0.00,,CLR,0.00,VWS V14.01,2013-11-07 05:50:00,
2013-11-06 21:56:00,55.9,22.4,30.06,NNW,338,2.7,2.7,27,0.00,,CLR,0.00,VWS V14.01,2013-11-07 05:56:00,
2013-11-06 22:01:00,55.9,22.4,30.06,NNW,342,3.1,3.1,27,0.00,,CLR,0.00,VWS V14.01,2013-11-07 06:01:00,
2013-11-06 22:07:00,55.7,22.3,30.06,NNW,342,4.0,4.0,27,0.00,,CLR,0.00,VWS V14.01,2013-11-07 06:07:00,
2013-11-06 22:13:00,55.6,22.1,30.06,NNW,341,0.0,3.6,27,0.00,,CLR,0.00,VWS V14.01,2013-11-07 06:13:00,
2013-11-06 22:18:00,55.6,22.1,30.06,NNW,328,0.0,2.2,27,0.00,,CLR,0.00,VWS V14.01,2013-11-07 06:18:00,
2013-11-06 22:23:00,55.6,22.1,30.06,NNW,338,2.2,2.7,27,0.00,,CLR,0.00,VWS V14.01,2013-11-07 06:23:00,
2013-11-06 22:29:00,55.6,22.1,30.06,NNW,343,3.1,3.6,27,0.00,,CLR,0.00,VWS V14.01,2013-11-07 06:29:00,
2013-11-06 22:35:00,55.4,22.0,30.06,NNW,346,3.6,4.9,27,0.00,,CLR,0.00,VWS V14.01,2013-11-07 06:35:00,
2013-11-06 22:40:00,55.4,22.0,30.06,NNW,337,5.8,5.8,27,0.00,,CLR,0.00,VWS V14.01,2013-11-07 06:40:00,
2013-11-06 22:46:00,55.9,21.5,30.06,NNW,328,3.6,5.4,26,0.00,,CLR,0.00,VWS V14.01,2013-11-07 06:46:00,
2013-11-06 22:51:00,56.1,21.7,30.06,North,353,5.4,5.8,26,0.00,,CLR,0.00,VWS V14.01,2013-11-07 06:51:00,
2013-11-06 22:57:00,56.5,21.1,30.06,North,357,5.4,6.3,25,0.00,,CLR,0.00,VWS V14.01,2013-11-07 06:57:00,
2013-11-06 23:03:00,56.8,20.4,30.03,North,357,5.8,6.3,24,0.00,,CLR,0.00,VWS V14.01,2013-11-07 07:03:00,
2013-11-06 23:08:00,57.2,18.7,30.03,North,357,5.8,6.3,22,0.00,,CLR,0.00,VWS V14.01,2013-11-07 07:08:00,
2013-11-06 23:14:00,57.2,15.3,30.03,North,357,5.8,5.8,19,0.00,,CLR,0.00,VWS V14.01,2013-11-07 07:14:00,
2013-11-06 23:19:00,57.4,15.5,30.03,North,1,5.4,5.4,19,0.00,,CLR,0.00,VWS V14.01,2013-11-07 07:19:00,
2013-11-06 23:25:00,57.2,12.8,30.03,North,353,5.8,5.8,17,0.00,,CLR,0.00,VWS V14.01,2013-11-07 07:25:00,
2013-11-06 23:30:00,57.2,12.8,30.03,NNW,331,4.0,5.8,17,0.00,,CLR,0.00,VWS V14.01,2013-11-07 07:30:00,
2013-11-06 23:35:00,57.2,12.8,30.03,NNW,345,4.0,4.9,17,0.00,,CLR,0.00,VWS V14.01,2013-11-07 07:35:00,
2013-11-06 23:41:00,57.4,8.6,30.03,North,353,4.9,6.3,14,0.00,,CLR,0.00,VWS V14.01,2013-11-07 07:41:00,
2013-11-06 23:46:00,57.5,8.7,30.03,North,4,4.9,5.4,14,0.00,,CLR,0.00,VWS V14.01,2013-11-07 07:46:00,
2013-11-06 23:52:00,57.5,8.7,30.03,North,357,6.3,6.3,14,0.00,,CLR,0.00,VWS V14.01,2013-11-07 07:52:00,
2013-11-06 23:57:00,57.4,8.6,30.03,NNW,345,4.0,4.0,14,0.00,,CLR,0.00,VWS V14.01,2013-11-07 07:57:00,